Regional Weather Roundup
Issued by NWS Cleveland, OH

Home | Current Version | Previous Version | Graphics & Text | Print | Product List | Glossary On
Versions: 1 2 3 4 5 6 7 8 9 10 11 12 13 14 15 16 17 18 19 20 21 22 23 24 25 26 27 28 29 30 31 32 33 34 35 36 37 38 39 40 41 42 43 44 45 46 47 48 49 50
000
ASUS41 KCLE 250512
RWRCLE
OHIO REGIONAL WEATHER ROUNDUP
NATIONAL WEATHER SERVICE WILMINGTON, OH
100 AM EDT TUE JUL 25 2017

NOTE: "FAIR" INDICATES FEW OR NO CLOUDS BELOW 12,000 FEET WITH NO
SIGNIFICANT WEATHER AND/OR OBSTRUCTIONS TO VISIBILITY.

OHZ001>008-015>018-024>027-034-035-043-044-250600-
   NORTHWEST OHIO

CITY           SKY/WX    TMP DP  RH WIND       PRES   REMARKS
DEFIANCE       FAIR     N/A N/A N/A CALM      30.13R
FINDLAY        FAIR      61  56  83 CALM      30.12R
TOLEDO EXPRESS FAIR      60  53  77 NE6       30.12R
TOLEDO EXEC    FAIR      66  53  63 N6        30.13R
LIMA           FAIR      57  57 100 CALM      30.13R
$$

OHZ009>014-019>023-028>033-038-089-250600-
   NORTHEAST OHIO

CITY           SKY/WX    TMP DP  RH WIND       PRES   REMARKS
CLE-HOPKINS    CLOUDY    68  54  60 N15       30.11R
CLE-LAKEFRONT  CLOUDY    67  55  65 N21       30.08R
CUY CO. ARPT   NOT AVBL
LORAIN-ELYRIA  CLOUDY    66  50  56 N9        30.11R
ASHTABULA      CLOUDY    64  56  75 N9        30.07R
AKRON-CANTON   FAIR      61  52  72 N8        30.09R
WOOSTER        FAIR      57  55  93 CALM      30.11R
MANSFIELD      FAIR      58  57  97 CALM      30.12R
YOUNGSTOWN     CLOUDY    63  53  70 NW8       30.07R
$$

OHZ042-051>053-060>062-070>072-077>081-250600-
  SOUTHWEST OHIO

CITY           SKY/WX    TMP DP  RH WIND       PRES   REMARKS
CINC-COVINGTON FAIR      71  61  70 NE13      30.09R
CINC-LUNKEN    FAIR      67  62  84 NE6       30.10R
HAMILTON       FAIR      64  62  93 CALM      30.11R
DAYTON         FAIR      61  57  87 NE6       30.13R
WRIGHT-PAT AFB FAIR      64  60  89 N7        30.11R
DAYTON GENERAL FAIR      63  58  83 NE5       30.11R
WILMINGTON     FAIR      60  60 100 NE7       30.11R
$$

OHZ036-037-039>041-045>050-054>059-063>069-073>076-082>088-250600-
  CENTRAL AND SOUTHEAST OHIO

CITY           SKY/WX    TMP DP  RH WIND       PRES   REMARKS
COLUMBUS       FAIR      63  60  90 N5        30.11R
OSU AIRPORT    FAIR      61  60  97 N3        30.12R
BOLTON FIELD   FAIR      62  59  91 N5        30.13R
RICKENBACK AFB FAIR      64  59  85 N6        30.11R
NEWARK         FAIR      61  59  93 CALM      30.11R
MARION         FAIR      60  57  89 CALM      30.13R
LANCASTER      FAIR      61  59  93 CALM      30.11R
ZANESVILLE     FAIR      63  59  87 NW3       30.10R
NEW PHILLY     FAIR      59  58  96 CALM      30.10R
$$



USA.gov is the U.S. government's official web portal to all federal, state and local government web resources and services.